Date String (YYYY-MM-DD hh:mm:ss) UTC,Instrument flags,Ambient pressure (hPa),Sample flow (lpm),Bypass flow (lpm),Sample temperature (°C),Ambient temperature (°C),ASC tube jacket temperature (°C),LED temperature (°C),Box temperature (°C),Sample RH (%),Span deviation,Mass concentration (μg/m³),Mass concentration (μg/m³),Mass concentration (μg/m³)
DateTimeUTC,F1_M11,P_M11,Q1_M11,Q2_M11,T1_M11,T2_M11,T3_M11,T4_M11,T5_M11,U1_M11,ZSPAN_M11,X0_M11,X2_M11,X1_M11
2022-12-17 21:00:00,,0821.8,4.99,0.00,23.0,21.8,00.0,31.8,24.8,04.6,0000.0,0009.54,0003.44,0002.69
2022-12-17 21:01:00,,0821.8,4.98,0.00,23.0,21.9,00.0,31.8,24.8,04.5,0000.0,0009.53,0003.42,0002.66
2022-12-17 21:02:00,,0821.8,5.04,0.00,23.0,21.9,00.0,31.8,24.9,04.6,0000.0,0009.71,0003.42,0002.66
2022-12-17 21:03:00,,0821.8,4.99,0.00,23.1,21.9,00.0,31.8,24.9,04.5,0000.0,0008.84,0003.36,0002.66
2022-12-17 21:04:00,,0821.8,4.98,0.00,23.1,21.9,00.0,31.8,24.9,04.5,0000.0,0008.86,0003.33,0002.66
2022-12-17 21:05:00,,0821.8,5.05,0.00,23.1,22.0,00.0,31.8,24.9,04.5,0000.0,0009.25,0003.32,0002.67
2022-12-17 21:06:00,,0821.8,4.97,0.00,23.1,22.0,00.0,31.8,24.9,04.6,0000.0,0009.19,0003.30,0002.65
2022-12-17 21:07:00,,0821.9,5.03,0.00,23.1,22.0,00.0,31.8,25.0,04.6,0000.0,0009.16,0003.27,0002.63
2022-12-17 21:08:00,,0821.8,4.99,0.00,23.2,22.0,00.0,31.9,24.9,04.6,0000.0,0008.18,0003.23,0002.64
2022-12-17 21:09:00,,0821.8,4.98,0.00,23.2,22.0,00.0,31.9,25.0,04.6,0000.0,0007.80,0003.26,0002.65
2022-12-17 21:10:00,,0821.8,5.04,0.00,23.2,22.0,00.0,31.9,25.0,04.5,0000.0,0007.94,0003.29,0002.65
2022-12-17 21:11:00,,0821.8,4.97,0.00,23.2,22.0,00.0,31.9,25.0,04.5,0000.0,0008.35,0003.30,0002.67
2022-12-17 21:12:00,,0821.8,4.98,0.00,23.2,22.1,00.0,31.9,25.0,04.5,0000.0,0008.80,0003.36,0002.70
2022-12-17 21:13:00,,0821.9,5.03,0.00,23.2,22.1,00.0,31.9,25.0,04.5,0000.0,0008.90,0003.39,0002.71
2022-12-17 21:14:00,,0821.9,4.97,0.00,23.2,22.1,00.0,32.0,25.1,04.5,0000.0,0008.89,0003.40,0002.71
2022-12-17 21:15:00,,0822.1,5.04,0.00,23.2,22.0,00.0,32.0,25.1,04.5,0000.0,0008.97,0003.40,0002.72
2022-12-17 21:16:00,,0822.0,4.98,0.00,23.2,22.0,00.0,32.0,25.0,04.5,0000.0,0008.99,0003.37,0002.71
2022-12-17 21:17:00,,0821.8,4.97,0.00,23.3,22.0,00.0,32.0,25.0,04.5,0000.0,0009.68,0003.34,0002.71
2022-12-17 21:18:00,,0821.8,5.05,0.00,23.3,22.1,00.0,32.0,25.0,04.5,0000.0,0009.97,0003.34,0002.73
2022-12-17 21:19:00,,0821.9,4.98,0.00,23.3,22.1,00.0,32.0,25.0,04.5,0000.0,0010.55,0003.35,0002.73
2022-12-17 21:20:00,,0821.8,4.98,0.00,23.3,22.1,00.0,32.0,25.0,04.5,0000.0,0010.49,0003.35,0002.73
2022-12-17 21:21:00,,0821.8,5.05,0.00,23.3,22.1,00.0,32.0,25.0,04.5,0000.0,0010.52,0003.35,0002.74
2022-12-17 21:22:00,,0821.8,4.98,0.00,23.3,22.1,00.0,32.0,25.1,04.5,0000.0,0010.44,0003.35,0002.74
2022-12-17 21:23:00,,0821.9,4.97,0.00,23.3,22.1,00.0,32.0,25.1,04.5,0000.0,0010.20,0003.35,0002.74
2022-12-17 21:24:00,,0821.8,5.05,0.00,23.3,22.1,00.0,32.1,25.1,04.5,0000.0,0011.08,0003.34,0002.73
2022-12-17 21:25:00,,0821.8,4.98,0.00,23.3,22.2,00.0,32.1,25.1,04.5,0000.0,0011.20,0003.37,0002.74
2022-12-17 21:26:00,,0821.8,5.02,0.00,23.4,22.2,00.0,32.1,25.1,04.5,0000.0,0011.36,0003.37,0002.74
2022-12-17 21:27:00,,0821.8,5.00,0.00,23.4,22.2,00.0,32.1,25.1,04.5,0000.0,0011.23,0003.38,0002.75
2022-12-17 21:28:00,,0821.7,4.97,0.00,23.4,22.2,00.0,32.1,25.1,04.5,0000.0,0010.82,0003.42,0002.77
2022-12-17 21:29:00,,0821.8,5.03,0.00,23.4,22.2,00.0,32.1,25.1,04.4,0000.0,0010.50,0003.43,0002.75
2022-12-17 21:30:00,,0821.8,4.98,0.00,23.4,22.2,00.0,32.1,25.2,04.4,0000.0,0010.56,0003.45,0002.75
2022-12-17 21:31:00,,0821.8,4.98,0.00,23.4,22.2,00.0,32.1,25.2,04.4,0000.0,0009.79,0003.42,0002.76
2022-12-17 21:32:00,,0821.8,5.03,0.00,23.4,22.2,00.0,32.2,25.2,04.4,0000.0,0009.74,0003.42,0002.74
2022-12-17 21:33:00,,0821.8,4.99,0.00,23.5,22.2,00.0,32.2,25.2,04.4,0000.0,0009.35,0003.39,0002.73
2022-12-17 21:34:00,,0821.8,4.98,0.00,23.5,22.2,00.0,32.2,25.2,04.4,0000.0,0009.38,0003.37,0002.72
2022-12-17 21:35:00,,0821.8,5.05,0.00,23.5,22.2,00.0,32.2,25.2,04.4,0000.0,0008.23,0003.35,0002.71
2022-12-17 21:36:00,,0821.8,4.97,0.00,23.5,22.2,00.0,32.2,25.2,04.4,0000.0,0007.95,0003.32,0002.71
2022-12-17 21:37:00,,0821.9,4.97,0.00,23.5,22.2,00.0,32.2,25.2,04.4,0000.0,0008.45,0003.32,0002.70
2022-12-17 21:38:00,,0821.9,5.06,0.00,23.5,22.2,00.0,32.2,25.2,04.4,0000.0,0008.00,0003.32,0002.70
2022-12-17 21:39:00,,0821.9,4.98,0.00,23.5,22.2,00.0,32.2,25.2,04.4,0000.0,0007.81,0003.29,0002.69
2022-12-17 21:40:00,,0821.8,4.98,0.00,23.5,22.2,00.0,32.2,25.2,04.4,0000.0,0008.12,0003.27,0002.68
2022-12-17 21:41:00,,0822.1,5.04,0.00,23.5,22.2,00.0,32.2,25.3,04.4,0000.0,0007.97,0003.22,0002.64
2022-12-17 21:42:00,,0822.1,4.98,0.00,23.5,22.2,00.0,32.2,25.3,04.4,0000.0,0007.82,0003.20,0002.60
2022-12-17 21:43:00,,0822.0,4.97,0.00,23.5,22.2,00.0,32.3,25.3,04.4,0000.0,0007.80,0003.17,0002.56
2022-12-17 21:44:00,,0822.0,5.05,0.00,23.5,22.2,00.0,32.3,25.3,04.4,0000.0,0007.76,0003.17,0002.53
2022-12-17 21:45:00,,0821.9,4.98,0.00,23.5,22.2,00.0,32.3,25.3,04.4,0000.0,0007.75,0003.16,0002.50
2022-12-17 21:46:00,,0822.2,4.97,0.00,23.5,22.2,00.0,32.3,25.3,04.4,0000.0,0007.69,0003.15,0002.48
2022-12-17 21:47:00,,0821.8,5.05,0.00,23.5,22.2,00.0,32.3,25.3,04.4,0000.0,0007.86,0003.13,0002.44
2022-12-17 21:48:00,,0821.9,4.97,0.00,23.5,22.2,00.0,32.3,25.3,04.4,0000.0,0008.11,0003.12,0002.41
2022-12-17 21:49:00,,0822.0,4.99,0.00,23.5,22.2,00.0,32.3,25.3,04.4,0000.0,0008.01,0003.12,0002.38
2022-12-17 21:50:00,,0822.0,5.03,0.00,23.5,22.1,00.0,32.3,25.3,04.4,0000.0,0008.98,0003.14,0002.34
2022-12-17 21:51:00,,0822.1,4.97,0.00,23.5,22.1,00.0,32.3,25.3,04.4,0000.0,0009.15,0003.13,0002.31
2022-12-17 21:52:00,,0822.1,5.02,0.00,23.5,22.1,00.0,32.3,25.3,04.4,0000.0,0008.72,0003.12,0002.30
2022-12-17 21:53:00,,0822.1,5.01,0.00,23.5,22.1,00.0,32.3,25.3,04.4,0000.0,0008.89,0003.13,0002.30
2022-12-17 21:54:00,,0822.1,4.97,0.00,23.5,22.1,00.0,32.3,25.3,04.4,0000.0,0009.17,0003.16,0002.30
2022-12-17 21:55:00,,0822.1,5.03,0.00,23.5,22.1,00.0,32.3,25.2,04.4,0000.0,0010.23,0003.15,0002.31
2022-12-17 21:56:00,,0822.1,4.99,0.00,23.5,22.1,00.0,32.3,25.2,04.4,0000.0,0010.85,0003.15,0002.32
2022-12-17 21:57:00,,0822.1,4.97,0.00,23.5,22.1,00.0,32.3,25.3,04.5,0000.0,0011.13,0003.17,0002.32
2022-12-17 21:58:00,,0822.1,5.06,0.00,23.5,22.1,00.0,32.3,25.3,04.5,0000.0,0011.17,0003.23,0002.31
2022-12-17 21:59:00,,0822.1,4.95,0.00,23.5,22.1,00.0,32.3,25.3,04.5,0000.0,0010.93,0003.22,0002.31
